Home > Weather > Stornoway > Past weeks

Flag for United Kingdom Past Weather in Stornoway, Scotland, United Kingdom — Yesterday and Last 2 Weeks

Now
61 °F

Partly sunny.


Feels Like: 61 °F
Forecast: 51 / 56 °F
Wind: 21 mph from South

Location: Stornoway

Current Time: Jun 26, 2016 at 3:05:38 PM

Latest Report: Jun 26, 2016 at 2:20 PM


Visibility: N/A

Pressure: 29.77 "Hg

Humidity: 88%

Dew Point: 57 °F

Location of StornowayLocation

Past Weather in Stornoway — Graph

°F

Stornoway Temperature Yesterday

Maximum temperature yesterday: 63 °F (at 12:50 PM)
Minimum temperature yesterday: 52 °F (at 3:20 AM)
Average temperature yesterday: 56 °F

High & Low Weather Summary for the Past Weeks

 TemperatureHumidityPressure
High64 °F (Jun 12, 1:20 PM)100% (Jun 13, 6:20 AM)30.15 "Hg (Jun 13, 6:20 AM)
Low48 °F (Jun 16, 3:20 AM)55% (Jun 18, 12:20 PM)29.50 "Hg (Jun 19, 10:50 PM)
Average55 °F84%29.83 "Hg
* Reported Jun 11 1:20 PM — Jun 26 1:50 PM, Stornoway, Weather by CustomWeather, © 2016

Note: Actual official high and low records may vary slightly from our data, if they occured in-between our weather recording intervals... More about our weather records

Advertising

Stornoway Weather History for the Previous 24 Hours

Scroll right to see more
 ConditionsComfort  
Time TempWeatherWind HumidityBarometerVisibility
1:50 PM
Sun, Jun 26
57 °FLight rain. Broken clouds.20 mph94%29.80 "HgN/A
1:20 PM55 °FDrizzle. Partly sunny.22 mph94%29.80 "HgN/A
12:50 PM54 °FDrizzle. Broken clouds.20 mph94%29.80 "HgN/A
12:20 PM54 °FDrizzle. Partly sunny.18 mph94%29.83 "Hg3 mi
11:50 AM54 °FLight rain. Partly sunny.17 mph94%29.83 "HgN/A
11:20 AM54 °FLight rain. Partly sunny.20 mph94%29.86 "HgN/A
10:50 AM55 °FSprinkles. Overcast.15 mph88%29.86 "HgN/A
10:20 AM55 °FDrizzle. Overcast.17 mph88%29.86 "HgN/A
9:50 AM55 °FPartly sunny.20 mph82%29.89 "HgN/A
9:20 AM55 °FPartly sunny.17 mph82%29.89 "HgN/A
8:50 AM55 °FPartly sunny.14 mph82%29.92 "HgN/A
8:20 AM55 °FPartly sunny.18 mph82%29.92 "HgN/A
7:50 AM55 °FPassing clouds.14 mph82%29.92 "HgN/A
7:20 AM55 °FCool.13 mph82%29.95 "HgN/A
6:50 AM55 °FCool.13 mph82%29.95 "HgN/A
6:20 AM54 °FPartly sunny.9 mph88%29.95 "HgN/A
5:50 AM54 °FOvercast.9 mph88%29.98 "HgN/A
5:20 AM54 °FOvercast.7 mph88%29.98 "HgN/A
4:50 AM54 °FOvercast.7 mph94%29.98 "HgN/A
4:20 AM54 °FOvercast.6 mph94%30.01 "HgN/A
3:50 AM54 °FPassing clouds.5 mph94%30.01 "HgN/A
3:20 AM54 °FMostly cloudy.3 mph94%30.01 "HgN/A
2:50 AM54 °FLow clouds.3 mph94%30.04 "HgN/A
2:20 AM54 °FPassing clouds.5 mph94%30.04 "HgN/A
1:50 AM54 °FOvercast.5 mph94%30.04 "HgN/A
1:20 AM54 °FOvercast.3 mph94%30.04 "HgN/A
12:50 AM54 °FOvercast.5 mph94%30.07 "HgN/A
12:20 AM54 °FPassing clouds.3 mph94%30.07 "HgN/A
11:50 PM
Sat, Jun 25
54 °FOvercast.2 mph94%30.07 "HgN/A
11:20 PM54 °FOvercast.No wind94%30.07 "HgN/A
10:50 PM54 °FOvercast.No wind94%30.07 "HgN/A
10:20 PM54 °FOvercast.2 mph94%30.07 "HgN/A
9:50 PM55 °FOvercast.2 mph88%30.07 "HgN/A
9:20 PM55 °FOvercast.6 mph88%30.07 "HgN/A
8:50 PM55 °FPartly sunny.6 mph88%30.07 "HgN/A
8:20 PM55 °FPartly sunny.6 mph88%30.09 "HgN/A
7:50 PM55 °FOvercast.6 mph88%30.09 "HgN/A
7:20 PM57 °FOvercast.5 mph88%30.09 "HgN/A
6:50 PM57 °FPartly sunny.7 mph88%30.09 "HgN/A
6:20 PM57 °FScattered clouds.7 mph82%30.09 "HgN/A
5:50 PM57 °FPartly sunny.7 mph88%30.09 "HgN/A
5:20 PM59 °FOvercast.8 mph82%30.09 "HgN/A
4:50 PM59 °FOvercast.6 mph82%30.09 "HgN/A
4:20 PM59 °FPartly sunny.5 mph82%30.09 "HgN/A
3:50 PM59 °FBroken clouds.6 mph82%30.09 "HgN/A
3:20 PM57 °FBroken clouds.6 mph88%30.09 "HgN/A
Weather by CustomWeather, © 2016

See weather overviewHow to use our weather pages